contact:dominique.lefevre@mio.osupytheas.fr, maurice.libes@osupytheas.fr, didier.mallarino@osupytheas.fr
Project:EMSO http://www.emso-fr.org/EMSO-France
Depth: 2436.0 m
Title:EMSO Ligure Ouest : Data MII capteur MICROCAT
DateTime_Computer,Latitude,Longitude,Temperature,Conductivity,Pressure,DateTime_Instrument
DateTime_Computer,Latitude,Longitude,degC,S m-1,dbar,DateTime_Instrument
2017-10-17T00:00:20Z,42.805,6.029,13.2964,4.60036,2471.912,2017-10-17T02:01:45Z
2017-10-17T00:01:55Z,42.805,6.029,13.2978,4.60015,2471.912,2017-10-17T02:03:20Z
2017-10-17T00:03:30Z,42.805,6.029,13.2958,4.60009,2471.889,2017-10-17T02:04:55Z
2017-10-17T00:05:05Z,42.805,6.029,13.2964,4.60049,2471.889,2017-10-17T02:06:30Z
2017-10-17T00:06:40Z,42.805,6.029,13.2967,4.60040,2471.912,2017-10-17T02:08:04Z
2017-10-17T00:08:14Z,42.805,6.029,13.2962,4.60027,2471.912,2017-10-17T02:09:39Z
2017-10-17T00:09:49Z,42.805,6.029,13.2967,4.60054,2471.912,2017-10-17T02:11:14Z
2017-10-17T00:11:24Z,42.805,6.029,13.2971,4.60052,2471.934,2017-10-17T02:12:49Z
2017-10-17T00:12:59Z,42.805,6.029,13.2970,4.60025,2471.874,2017-10-17T02:14:24Z
2017-10-17T00:14:34Z,42.805,6.029,13.2973,4.60082,2471.912,2017-10-17T02:15:59Z
2017-10-17T00:16:09Z,42.805,6.029,13.2973,4.60052,2471.897,2017-10-17T02:17:33Z
2017-10-17T00:17:43Z,42.805,6.029,13.2973,4.60050,2471.889,2017-10-17T02:19:08Z
2017-10-17T00:19:18Z,42.805,6.029,13.2969,4.60050,2471.889,2017-10-17T02:20:43Z
2017-10-17T00:20:53Z,42.805,6.029,13.2968,4.60047,2471.889,2017-10-17T02:22:18Z
2017-10-17T00:22:28Z,42.805,6.029,13.2969,4.60039,2471.889,2017-10-17T02:23:53Z
2017-10-17T00:24:03Z,42.805,6.029,13.2970,4.60037,2471.874,2017-10-17T02:25:28Z
2017-10-17T00:25:38Z,42.805,6.029,13.2977,4.60066,2471.866,2017-10-17T02:27:02Z
2017-10-17T00:27:13Z,42.805,6.029,13.2975,4.60078,2471.904,2017-10-17T02:28:37Z
2017-10-17T00:28:47Z,42.805,6.029,13.2976,4.60063,2471.912,2017-10-17T02:30:12Z
2017-10-17T00:30:22Z,42.805,6.029,13.2978,4.60082,2471.889,2017-10-17T02:31:47Z
2017-10-17T00:31:57Z,42.805,6.029,13.2977,4.60047,2471.912,2017-10-17T02:33:22Z
2017-10-17T00:33:32Z,42.805,6.029,13.2978,4.60058,2471.852,2017-10-17T02:34:57Z
2017-10-17T00:35:07Z,42.805,6.029,13.2988,4.60070,2471.897,2017-10-17T02:36:31Z
2017-10-17T00:36:42Z,42.805,6.029,13.2992,4.60065,2471.874,2017-10-17T02:38:06Z
2017-10-17T00:38:16Z,42.805,6.029,13.2984,4.60054,2471.912,2017-10-17T02:39:41Z
2017-10-17T00:39:51Z,42.805,6.029,13.2979,4.60082,2471.889,2017-10-17T02:41:16Z
2017-10-17T00:41:26Z,42.805,6.029,13.2977,4.60050,2471.889,2017-10-17T02:42:51Z
2017-10-17T00:43:01Z,42.805,6.029,13.2968,4.60094,2471.889,2017-10-17T02:44:26Z
2017-10-17T00:44:36Z,42.805,6.029,13.2983,4.60094,2471.889,2017-10-17T02:46:00Z
2017-10-17T00:46:11Z,42.805,6.029,13.2970,4.60083,2471.866,2017-10-17T02:47:35Z
2017-10-17T00:47:45Z,42.805,6.029,13.2970,4.60070,2471.897,2017-10-17T02:49:10Z
2017-10-17T00:49:20Z,42.805,6.029,13.2979,4.60032,2471.912,2017-10-17T02:50:45Z
2017-10-17T00:50:55Z,42.805,6.029,13.2980,4.60054,2471.897,2017-10-17T02:52:20Z
2017-10-17T00:52:30Z,42.805,6.029,13.2968,4.60092,2471.889,2017-10-17T02:53:55Z
2017-10-17T00:54:05Z,42.805,6.029,13.2985,4.60069,2471.889,2017-10-17T02:55:30Z
2017-10-17T00:55:40Z,42.805,6.029,13.2998,4.60080,2471.889,2017-10-17T02:57:04Z
2017-10-17T00:57:14Z,42.805,6.029,13.2986,4.60029,2471.889,2017-10-17T02:58:39Z
2017-10-17T00:58:49Z,42.805,6.029,13.2982,4.60048,2471.912,2017-10-17T03:00:14Z
2017-10-17T01:00:24Z,42.805,6.029,13.2993,4.60059,2471.897,2017-10-17T03:01:49Z
2017-10-17T01:01:59Z,42.805,6.029,13.3009,4.60035,2471.897,2017-10-17T03:03:24Z
2017-10-17T01:03:34Z,42.805,6.029,13.3008,4.59998,2471.927,2017-10-17T03:04:59Z
2017-10-17T01:05:09Z,42.805,6.029,13.3000,4.59991,2471.852,2017-10-17T03:06:33Z
2017-10-17T01:06:43Z,42.805,6.029,13.3027,4.60012,2471.912,2017-10-17T03:08:08Z
2017-10-17T01:08:18Z,42.805,6.029,13.3000,4.59992,2471.912,2017-10-17T03:09:43Z
2017-10-17T01:09:53Z,42.805,6.029,13.2970,4.59998,2471.912,2017-10-17T03:11:18Z
2017-10-17T01:11:28Z,42.805,6.029,13.2961,4.60035,2471.889,2017-10-17T03:12:53Z
2017-10-17T01:13:03Z,42.805,6.029,13.2991,4.60009,2471.912,2017-10-17T03:14:28Z
2017-10-17T01:14:38Z,42.805,6.029,13.2981,4.60003,2471.912,2017-10-17T03:16:02Z
2017-10-17T01:16:12Z,42.805,6.029,13.2973,4.60012,2471.866,2017-10-17T03:17:37Z
2017-10-17T01:17:47Z,42.805,6.029,13.2961,4.60015,2471.897,2017-10-17T03:19:12Z
2017-10-17T01:19:22Z,42.805,6.029,13.3042,4.60003,2471.897,2017-10-17T03:20:47Z
2017-10-17T01:20:57Z,42.805,6.029,13.2979,4.60012,2471.934,2017-10-17T03:22:22Z
2017-10-17T01:22:32Z,42.805,6.029,13.2985,4.60000,2471.934,2017-10-17T03:23:57Z
2017-10-17T01:24:07Z,42.805,6.029,13.2986,4.60013,2471.912,2017-10-17T03:25:31Z
2017-10-17T01:25:41Z,42.805,6.029,13.2990,4.60029,2471.919,2017-10-17T03:27:06Z
2017-10-17T01:27:16Z,42.805,6.029,13.2993,4.60005,2471.874,2017-10-17T03:28:41Z
2017-10-17T01:28:51Z,42.805,6.029,13.2984,4.60006,2471.934,2017-10-17T03:30:16Z
2017-10-17T01:30:26Z,42.805,6.029,13.2985,4.60023,2471.912,2017-10-17T03:31:51Z
2017-10-17T01:32:01Z,42.805,6.029,13.2987,4.60041,2471.897,2017-10-17T03:33:26Z
2017-10-17T01:33:36Z,42.805,6.029,13.2988,4.60037,2471.912,2017-10-17T03:35:00Z
2017-10-17T01:35:10Z,42.805,6.029,13.2971,4.60023,2471.897,2017-10-17T03:36:35Z
2017-10-17T01:36:45Z,42.805,6.029,13.2980,4.60037,2471.919,2017-10-17T03:38:10Z
2017-10-17T01:38:20Z,42.805,6.029,13.2983,4.60016,2471.934,2017-10-17T03:39:45Z
2017-10-17T01:39:55Z,42.805,6.029,13.2988,4.60005,2471.957,2017-10-17T03:41:20Z
2017-10-17T01:41:30Z,42.805,6.029,13.2982,4.60053,2471.912,2017-10-17T03:42:55Z
2017-10-17T01:43:05Z,42.805,6.029,13.2989,4.60054,2471.904,2017-10-17T03:44:29Z
2017-10-17T01:44:39Z,42.805,6.029,13.2996,4.60051,2471.934,2017-10-17T03:46:04Z
2017-10-17T01:46:14Z,42.805,6.029,13.2982,4.60045,2471.934,2017-10-17T03:47:39Z
2017-10-17T01:47:49Z,42.805,6.029,13.2990,4.60071,2471.912,2017-10-17T03:49:14Z
2017-10-17T01:49:24Z,42.805,6.029,13.2979,4.60024,2471.912,2017-10-17T03:50:49Z
2017-10-17T01:50:59Z,42.805,6.029,13.2993,4.60005,2471.934,2017-10-17T03:52:24Z
2017-10-17T01:52:34Z,42.805,6.029,13.2982,4.60045,2471.934,2017-10-17T03:53:58Z
2017-10-17T01:54:08Z,42.805,6.029,13.2981,4.60032,2471.934,2017-10-17T03:55:33Z
2017-10-17T01:55:43Z,42.805,6.029,13.2955,4.60021,2471.934,2017-10-17T03:57:08Z
2017-10-17T01:57:18Z,42.805,6.029,13.2967,4.59989,2471.912,2017-10-17T03:58:43Z
2017-10-17T01:58:53Z,42.805,6.029,13.2975,4.60000,2471.934,2017-10-17T04:00:18Z
2017-10-17T02:00:28Z,42.805,6.029,13.2974,4.60001,2471.934,2017-10-17T04:01:53Z
2017-10-17T02:02:03Z,42.805,6.029,13.2984,4.60002,2471.934,2017-10-17T04:03:27Z
2017-10-17T02:03:37Z,42.805,6.029,13.2983,4.60037,2471.934,2017-10-17T04:05:02Z
2017-10-17T02:05:12Z,42.805,6.029,13.2991,4.60057,2471.934,2017-10-17T04:06:37Z
2017-10-17T02:06:47Z,42.805,6.029,13.2965,4.59992,2471.934,2017-10-17T04:08:12Z
2017-10-17T02:08:22Z,42.805,6.029,13.2949,4.59990,2471.942,2017-10-17T04:09:47Z
2017-10-17T02:09:57Z,42.805,6.029,13.2947,4.59982,2471.957,2017-10-17T04:11:22Z
2017-10-17T02:11:32Z,42.805,6.029,13.2943,4.59974,2471.934,2017-10-17T04:12:56Z
2017-10-17T02:13:07Z,42.805,6.029,13.2951,4.59977,2471.957,2017-10-17T04:14:31Z
2017-10-17T02:14:41Z,42.805,6.029,13.2959,4.59975,2471.957,2017-10-17T04:16:06Z
2017-10-17T02:16:16Z,42.805,6.029,13.2991,4.59994,2471.934,2017-10-17T04:17:41Z
2017-10-17T02:17:51Z,42.805,6.029,13.2994,4.59977,2471.919,2017-10-17T04:19:16Z
2017-10-17T02:19:26Z,42.805,6.029,13.2950,4.59975,2471.957,2017-10-17T04:20:51Z
2017-10-17T02:21:01Z,42.805,6.029,13.2946,4.59975,2471.957,2017-10-17T04:22:25Z
2017-10-17T02:22:36Z,42.805,6.029,13.2950,4.59973,2471.979,2017-10-17T04:24:00Z
2017-10-17T02:24:10Z,42.805,6.029,13.2943,4.59972,2471.957,2017-10-17T04:25:35Z
2017-10-17T02:25:45Z,42.805,6.029,13.2941,4.59972,2471.934,2017-10-17T04:27:10Z
2017-10-17T02:27:20Z,42.805,6.029,13.2944,4.59969,2471.957,2017-10-17T04:28:45Z
2017-10-17T02:28:55Z,42.805,6.029,13.2943,4.59971,2471.934,2017-10-17T04:30:20Z
2017-10-17T02:30:30Z,42.805,6.029,13.2945,4.59975,2471.919,2017-10-17T04:31:54Z
2017-10-17T02:32:05Z,42.805,6.029,13.2941,4.59970,2471.942,2017-10-17T04:33:29Z
2017-10-17T02:33:39Z,42.805,6.029,13.2944,4.59972,2471.964,2017-10-17T04:35:04Z
2017-10-17T02:35:14Z,42.805,6.029,13.2940,4.59973,2471.964,2017-10-17T04:36:39Z
2017-10-17T02:36:49Z,42.805,6.029,13.2943,4.59971,2471.957,2017-10-17T04:38:14Z
2017-10-17T02:38:24Z,42.805,6.029,13.2943,4.59967,2471.957,2017-10-17T04:39:49Z
2017-10-17T02:39:59Z,42.805,6.029,13.2939,4.59970,2471.979,2017-10-17T04:41:24Z
2017-10-17T02:41:34Z,42.805,6.029,13.2945,4.59970,2471.942,2017-10-17T04:42:58Z
2017-10-17T02:43:08Z,42.805,6.029,13.2945,4.59968,2471.964,2017-10-17T04:44:33Z
2017-10-17T02:44:43Z,42.805,6.029,13.2945,4.59969,2471.934,2017-10-17T04:46:08Z
2017-10-17T02:46:18Z,42.805,6.029,13.2951,4.59981,2471.957,2017-10-17T04:47:43Z
2017-10-17T02:47:53Z,42.805,6.029,13.2942,4.59970,2471.979,2017-10-17T04:49:18Z
2017-10-17T02:49:28Z,42.805,6.029,13.2941,4.59971,2471.942,2017-10-17T04:50:53Z
2017-10-17T02:51:03Z,42.805,6.029,13.2940,4.59972,2471.957,2017-10-17T04:52:27Z
2017-10-17T02:52:37Z,42.805,6.029,13.2943,4.59969,2471.987,2017-10-17T04:54:02Z
2017-10-17T02:54:12Z,42.805,6.029,13.2944,4.59971,2471.957,2017-10-17T04:55:37Z
2017-10-17T02:55:47Z,42.805,6.029,13.2943,4.59972,2471.957,2017-10-17T04:57:12Z
2017-10-17T02:57:22Z,42.805,6.029,13.2943,4.59974,2471.964,2017-10-17T04:58:47Z
2017-10-17T02:58:57Z,42.805,6.029,13.2944,4.59968,2471.964,2017-10-17T05:00:22Z
2017-10-17T03:00:32Z,42.805,6.029,13.2942,4.59969,2471.942,2017-10-17T05:01:56Z
2017-10-17T03:02:06Z,42.805,6.029,13.2942,4.59966,2471.957,2017-10-17T05:03:31Z
2017-10-17T03:03:41Z,42.805,6.029,13.2946,4.59967,2471.979,2017-10-17T05:05:06Z
2017-10-17T03:05:16Z,42.805,6.029,13.2945,4.59970,2471.979,2017-10-17T05:06:41Z
2017-10-17T03:06:51Z,42.805,6.029,13.2941,4.59970,2472.01,2017-10-17T05:08:16Z
2017-10-17T03:08:26Z,42.805,6.029,13.2950,4.59972,2472.002,2017-10-17T05:09:51Z
2017-10-17T03:10:01Z,42.805,6.029,13.2943,4.59976,2471.964,2017-10-17T05:11:25Z
2017-10-17T03:11:35Z,42.805,6.029,13.2947,4.59975,2471.964,2017-10-17T05:13:00Z
2017-10-17T03:13:10Z,42.805,6.029,13.2948,4.59975,2471.979,2017-10-17T05:14:35Z
2017-10-17T03:14:45Z,42.805,6.029,13.2950,4.59978,2471.979,2017-10-17T05:16:10Z
2017-10-17T03:16:20Z,42.805,6.029,13.2943,4.59975,2471.979,2017-10-17T05:17:45Z
2017-10-17T03:17:55Z,42.805,6.029,13.2949,4.59975,2472.002,2017-10-17T05:19:20Z
2017-10-17T03:19:30Z,42.805,6.029,13.2944,4.59972,2471.979,2017-10-17T05:20:54Z
2017-10-17T03:21:04Z,42.805,6.029,13.2944,4.59979,2471.979,2017-10-17T05:22:29Z
2017-10-17T03:22:39Z,42.805,6.029,13.2948,4.59974,2472.024,2017-10-17T05:24:04Z
2017-10-17T03:24:14Z,42.805,6.029,13.2944,4.59975,2472.002,2017-10-17T05:25:39Z
2017-10-17T03:25:49Z,42.805,6.029,13.2944,4.59971,2471.964,2017-10-17T05:27:14Z
2017-10-17T03:27:24Z,42.805,6.029,13.2941,4.59969,2472.002,2017-10-17T05:28:49Z
2017-10-17T03:28:59Z,42.805,6.029,13.2944,4.59971,2471.987,2017-10-17T05:30:23Z
2017-10-17T03:30:33Z,42.805,6.029,13.2945,4.59970,2472.01,2017-10-17T05:31:58Z
2017-10-17T03:32:08Z,42.805,6.029,13.2945,4.59969,2472.002,2017-10-17T05:33:33Z
2017-10-17T03:33:43Z,42.805,6.029,13.2946,4.59970,2472.01,2017-10-17T05:35:08Z
2017-10-17T03:35:18Z,42.805,6.029,13.2946,4.59973,2472.032,2017-10-17T05:36:43Z
2017-10-17T03:36:53Z,42.805,6.029,13.2946,4.59969,2472.002,2017-10-17T05:38:18Z
2017-10-17T03:38:28Z,42.805,6.029,13.2948,4.59970,2472.01,2017-10-17T05:39:52Z
2017-10-17T03:40:02Z,42.805,6.029,13.2940,4.59973,2471.987,2017-10-17T05:41:27Z
2017-10-17T03:41:37Z,42.805,6.029,13.2941,4.59972,2472.01,2017-10-17T05:43:02Z
2017-10-17T03:43:12Z,42.805,6.029,13.2942,4.59970,2472.002,2017-10-17T05:44:37Z
2017-10-17T03:44:47Z,42.805,6.029,13.2948,4.59972,2471.987,2017-10-17T05:46:12Z
2017-10-17T03:46:22Z,42.805,6.029,13.2945,4.59973,2472.024,2017-10-17T05:47:47Z
2017-10-17T03:47:57Z,42.805,6.029,13.2943,4.59970,2472.032,2017-10-17T05:49:21Z
2017-10-17T03:49:31Z,42.805,6.029,13.2944,4.59972,2472.01,2017-10-17T05:50:56Z
2017-10-17T03:51:06Z,42.805,6.029,13.2946,4.59970,2472.024,2017-10-17T05:52:31Z
2017-10-17T03:52:41Z,42.805,6.029,13.2945,4.59972,2472.002,2017-10-17T05:54:06Z
2017-10-17T03:54:16Z,42.805,6.029,13.2945,4.59970,2472.024,2017-10-17T05:55:41Z
2017-10-17T03:55:51Z,42.805,6.029,13.2945,4.59970,2472.024,2017-10-17T05:57:16Z
2017-10-17T03:57:26Z,42.805,6.029,13.2946,4.59971,2472.047,2017-10-17T05:58:50Z
2017-10-17T03:59:01Z,42.805,6.029,13.2941,4.59970,2472.047,2017-10-17T06:00:25Z
2017-10-17T04:00:35Z,42.805,6.029,13.2945,4.59973,2472.002,2017-10-17T06:02:00Z
2017-10-17T04:02:10Z,42.805,6.029,13.2948,4.59970,2472.024,2017-10-17T06:03:35Z
2017-10-17T04:03:45Z,42.805,6.029,13.2941,4.59972,2472.024,2017-10-17T06:05:10Z
2017-10-17T04:05:20Z,42.805,6.029,13.2946,4.59970,2472.024,2017-10-17T06:06:45Z
2017-10-17T04:06:55Z,42.805,6.029,13.2943,4.59970,2472.002,2017-10-17T06:08:19Z
2017-10-17T04:08:30Z,42.805,6.029,13.2946,4.59970,2472.024,2017-10-17T06:09:54Z
2017-10-17T04:10:04Z,42.805,6.029,13.2947,4.59971,2472.032,2017-10-17T06:11:29Z
2017-10-17T04:11:39Z,42.805,6.029,13.2940,4.59970,2472.024,2017-10-17T06:13:04Z
2017-10-17T04:13:14Z,42.805,6.029,13.2945,4.59969,2472.002,2017-10-17T06:14:39Z
2017-10-17T04:14:49Z,42.805,6.029,13.2945,4.59969,2472.01,2017-10-17T06:16:14Z
2017-10-17T04:16:24Z,42.805,6.029,13.2949,4.59968,2471.987,2017-10-17T06:17:48Z
2017-10-17T04:17:59Z,42.805,6.029,13.2940,4.59969,2472.047,2017-10-17T06:19:23Z
2017-10-17T04:19:33Z,42.805,6.029,13.2943,4.59969,2472.032,2017-10-17T06:20:58Z
2017-10-17T04:21:08Z,42.805,6.029,13.2945,4.59969,2472.047,2017-10-17T06:22:33Z
2017-10-17T04:22:43Z,42.805,6.029,13.2945,4.59972,2472.024,2017-10-17T06:24:08Z
2017-10-17T04:24:18Z,42.805,6.029,13.2944,4.59972,2472.047,2017-10-17T06:25:43Z
2017-10-17T04:25:53Z,42.805,6.029,13.2945,4.59970,2472.024,2017-10-17T06:27:18Z
2017-10-17T04:27:28Z,42.805,6.029,13.2943,4.59970,2472.069,2017-10-17T06:28:52Z
2017-10-17T04:29:02Z,42.805,6.029,13.2945,4.59970,2472.032,2017-10-17T06:30:27Z
2017-10-17T04:30:37Z,42.805,6.029,13.2945,4.59970,2472.032,2017-10-17T06:32:02Z
2017-10-17T04:32:12Z,42.805,6.029,13.2940,4.59969,2472.047,2017-10-17T06:33:37Z
2017-10-17T04:33:47Z,42.805,6.029,13.2943,4.59970,2472.01,2017-10-17T06:35:12Z
2017-10-17T04:35:22Z,42.805,6.029,13.2945,4.59970,2472.047,2017-10-17T06:36:47Z
2017-10-17T04:36:57Z,42.805,6.029,13.2943,4.59968,2472.047,2017-10-17T06:38:21Z
2017-10-17T04:38:31Z,42.805,6.029,13.2948,4.59969,2471.987,2017-10-17T06:39:56Z
2017-10-17T04:40:06Z,42.805,6.029,13.2948,4.59970,2472.032,2017-10-17T06:41:31Z
2017-10-17T04:41:41Z,42.805,6.029,13.2944,4.59967,2472.01,2017-10-17T06:43:06Z
2017-10-17T04:43:16Z,42.805,6.029,13.2943,4.59970,2472.062,2017-10-17T06:44:41Z
2017-10-17T04:44:51Z,42.805,6.029,13.2948,4.59968,2472.047,2017-10-17T06:46:16Z
2017-10-17T04:46:26Z,42.805,6.029,13.2947,4.59969,2472.01,2017-10-17T06:47:50Z
2017-10-17T04:48:00Z,42.805,6.029,13.2942,4.59970,2472.024,2017-10-17T06:49:25Z
2017-10-17T04:49:35Z,42.805,6.029,13.2944,4.59970,2472.047,2017-10-17T06:51:00Z
2017-10-17T04:51:10Z,42.805,6.029,13.2947,4.59970,2472.047,2017-10-17T06:52:35Z
2017-10-17T04:52:45Z,42.805,6.029,13.2945,4.59970,2472.047,2017-10-17T06:54:10Z
2017-10-17T04:54:20Z,42.805,6.029,13.2948,4.59970,2472.032,2017-10-17T06:55:45Z
2017-10-17T04:55:55Z,42.805,6.029,13.2944,4.59967,2472.024,2017-10-17T06:57:19Z
2017-10-17T04:57:29Z,42.805,6.029,13.2943,4.59969,2472.01,2017-10-17T06:58:54Z
2017-10-17T04:59:04Z,42.805,6.029,13.2945,4.59968,2472.032,2017-10-17T07:00:29Z
2017-10-17T05:00:39Z,42.805,6.029,13.2945,4.59968,2472.069,2017-10-17T07:02:04Z
2017-10-17T05:02:14Z,42.805,6.029,13.2945,4.59966,2472.032,2017-10-17T07:03:39Z
2017-10-17T05:03:49Z,42.805,6.029,13.2946,4.59970,2472.002,2017-10-17T07:05:14Z
2017-10-17T05:05:24Z,42.805,6.029,13.2942,4.59970,2472.024,2017-10-17T07:06:48Z
2017-10-17T05:06:58Z,42.805,6.029,13.2946,4.59972,2472.024,2017-10-17T07:08:23Z
2017-10-17T05:08:33Z,42.805,6.029,13.2943,4.59968,2472.047,2017-10-17T07:09:58Z
2017-10-17T05:10:08Z,42.805,6.029,13.2944,4.59970,2472.055,2017-10-17T07:11:33Z
2017-10-17T05:11:43Z,42.805,6.029,13.2946,4.59967,2472.047,2017-10-17T07:13:08Z
2017-10-17T05:13:18Z,42.805,6.029,13.2940,4.59969,2472.047,2017-10-17T07:14:43Z
2017-10-17T05:14:53Z,42.805,6.029,13.2948,4.59969,2472.032,2017-10-17T07:16:17Z
2017-10-17T05:16:27Z,42.805,6.029,13.2941,4.59968,2472.047,2017-10-17T07:17:52Z
2017-10-17T05:18:02Z,42.805,6.029,13.2948,4.59968,2472.069,2017-10-17T07:19:27Z
2017-10-17T05:19:37Z,42.805,6.029,13.2944,4.59968,2472.069,2017-10-17T07:21:02Z
2017-10-17T05:21:12Z,42.805,6.029,13.2945,4.59970,2472.047,2017-10-17T07:22:37Z
2017-10-17T05:22:47Z,42.805,6.029,13.2946,4.59969,2472.047,2017-10-17T07:24:12Z
2017-10-17T05:24:22Z,42.805,6.029,13.2948,4.59969,2472.069,2017-10-17T07:25:46Z
2017-10-17T05:25:56Z,42.805,6.029,13.2945,4.59968,2472.024,2017-10-17T07:27:21Z
2017-10-17T05:27:31Z,42.805,6.029,13.2943,4.59969,2472.047,2017-10-17T07:28:56Z
2017-10-17T05:29:06Z,42.805,6.029,13.2943,4.59969,2472.062,2017-10-17T07:30:31Z
2017-10-17T05:30:41Z,42.805,6.029,13.2942,4.59967,2472.069,2017-10-17T07:32:06Z
2017-10-17T05:32:16Z,42.805,6.029,13.2940,4.59970,2472.047,2017-10-17T07:33:41Z
2017-10-17T05:33:51Z,42.805,6.029,13.2946,4.59968,2472.062,2017-10-17T07:35:15Z
2017-10-17T05:35:25Z,42.805,6.029,13.2942,4.59967,2472.055,2017-10-17T07:36:50Z
2017-10-17T05:37:00Z,42.805,6.029,13.2941,4.59967,2472.047,2017-10-17T07:38:25Z
2017-10-17T05:38:35Z,42.805,6.029,13.2947,4.59967,2472.047,2017-10-17T07:40:00Z
2017-10-17T05:40:10Z,42.805,6.029,13.2943,4.59970,2472.047,2017-10-17T07:41:35Z
2017-10-17T05:41:45Z,42.805,6.029,13.2942,4.59967,2472.055,2017-10-17T07:43:10Z
2017-10-17T05:43:20Z,42.805,6.029,13.2948,4.59967,2472.032,2017-10-17T07:44:44Z
2017-10-17T05:44:55Z,42.805,6.029,13.2946,4.59968,2472.047,2017-10-17T07:46:19Z
2017-10-17T05:46:29Z,42.805,6.029,13.2943,4.59970,2472.047,2017-10-17T07:47:54Z
2017-10-17T05:48:04Z,42.805,6.029,13.2946,4.59967,2472.047,2017-10-17T07:49:29Z
2017-10-17T05:49:39Z,42.805,6.029,13.2944,4.59967,2472.032,2017-10-17T07:51:04Z
2017-10-17T05:51:14Z,42.805,6.029,13.2947,4.59966,2472.047,2017-10-17T07:52:39Z
2017-10-17T05:52:49Z,42.805,6.029,13.2943,4.59968,2472.055,2017-10-17T07:54:14Z
2017-10-17T05:54:24Z,42.805,6.029,13.2946,4.59965,2472.047,2017-10-17T07:55:48Z
2017-10-17T05:55:58Z,42.805,6.029,13.2943,4.59966,2472.047,2017-10-17T07:57:23Z
2017-10-17T05:57:33Z,42.805,6.029,13.2940,4.59965,2472.032,2017-10-17T07:58:58Z
2017-10-17T05:59:08Z,42.805,6.029,13.2943,4.59968,2472.069,2017-10-17T08:00:33Z
2017-10-17T06:00:43Z,42.805,6.029,13.2945,4.59970,2472.047,2017-10-17T08:02:08Z
2017-10-17T06:02:18Z,42.805,6.029,13.2941,4.59969,2472.055,2017-10-17T08:03:43Z
2017-10-17T06:03:53Z,42.805,6.029,13.2944,4.59967,2472.055,2017-10-17T08:05:17Z
2017-10-17T06:05:27Z,42.805,6.029,13.2946,4.59968,2472.024,2017-10-17T08:06:52Z
2017-10-17T06:07:02Z,42.805,6.029,13.2945,4.59968,2472.032,2017-10-17T08:08:27Z
2017-10-17T06:08:37Z,42.805,6.029,13.2943,4.59970,2472.032,2017-10-17T08:10:02Z
2017-10-17T06:10:12Z,42.805,6.029,13.2948,4.59967,2472.069,2017-10-17T08:11:37Z
2017-10-17T06:11:47Z,42.805,6.029,13.2943,4.59967,2472.069,2017-10-17T08:13:12Z
2017-10-17T06:13:22Z,42.805,6.029,13.2941,4.59968,2472.069,2017-10-17T08:14:46Z
2017-10-17T06:14:56Z,42.805,6.029,13.2942,4.59967,2472.032,2017-10-17T08:16:21Z
2017-10-17T06:16:31Z,42.805,6.029,13.2945,4.59967,2472.01,2017-10-17T08:17:56Z
2017-10-17T06:18:06Z,42.805,6.029,13.2941,4.59967,2472.069,2017-10-17T08:19:31Z
2017-10-17T06:19:41Z,42.805,6.029,13.2945,4.59970,2472.047,2017-10-17T08:21:06Z
2017-10-17T06:21:16Z,42.805,6.029,13.2945,4.59967,2472.032,2017-10-17T08:22:41Z
2017-10-17T06:22:51Z,42.805,6.029,13.2946,4.59969,2472.01,2017-10-17T08:24:15Z
2017-10-17T06:24:25Z,42.805,6.029,13.2942,4.59967,2472.01,2017-10-17T08:25:50Z
2017-10-17T06:26:00Z,42.805,6.029,13.2943,4.59969,2472.024,2017-10-17T08:27:25Z
2017-10-17T06:27:35Z,42.805,6.029,13.2948,4.59967,2472.002,2017-10-17T08:29:00Z
2017-10-17T06:29:10Z,42.805,6.029,13.2943,4.59970,2472.024,2017-10-17T08:30:35Z
2017-10-17T06:30:45Z,42.805,6.029,13.2943,4.59970,2472.047,2017-10-17T08:32:10Z
2017-10-17T06:32:20Z,42.805,6.029,13.2939,4.59969,2472.032,2017-10-17T08:33:44Z
2017-10-17T06:33:54Z,42.805,6.029,13.2943,4.59968,2472.055,2017-10-17T08:35:19Z
2017-10-17T06:35:29Z,42.805,6.029,13.2943,4.59967,2472.024,2017-10-17T08:36:54Z
2017-10-17T06:37:04Z,42.805,6.029,13.2944,4.59967,2472.047,2017-10-17T08:38:29Z
2017-10-17T06:38:39Z,42.805,6.029,13.2944,4.59966,2472.047,2017-10-17T08:40:04Z
2017-10-17T06:40:14Z,42.805,6.029,13.2948,4.59967,2472.024,2017-10-17T08:41:39Z
2017-10-17T06:41:49Z,42.805,6.029,13.2943,4.59967,2472.024,2017-10-17T08:43:13Z
2017-10-17T06:43:23Z,42.805,6.029,13.2945,4.59966,2472.047,2017-10-17T08:44:48Z
2017-10-17T06:44:58Z,42.805,6.029,13.2943,4.59967,2472.069,2017-10-17T08:46:23Z
2017-10-17T06:46:33Z,42.805,6.029,13.2946,4.59967,2472.047,2017-10-17T08:47:58Z
2017-10-17T06:48:08Z,42.805,6.029,13.2945,4.59968,2472.024,2017-10-17T08:49:33Z
2017-10-17T06:49:43Z,42.805,6.029,13.2944,4.59967,2472.047,2017-10-17T08:51:08Z
2017-10-17T06:51:18Z,42.805,6.029,13.2944,4.59967,2472.01,2017-10-17T08:52:42Z
2017-10-17T06:52:52Z,42.805,6.029,13.2943,4.59967,2472.024,2017-10-17T08:54:17Z
2017-10-17T06:54:27Z,42.805,6.029,13.2945,4.59966,2471.964,2017-10-17T08:55:52Z
2017-10-17T06:56:02Z,42.805,6.029,13.2945,4.59966,2472.024,2017-10-17T08:57:27Z
2017-10-17T06:57:37Z,42.805,6.029,13.2942,4.59967,2472.024,2017-10-17T08:59:02Z
2017-10-17T06:59:12Z,42.805,6.029,13.2942,4.59967,2472.047,2017-10-17T09:00:37Z
2017-10-17T07:00:47Z,42.805,6.029,13.2942,4.59965,2472.024,2017-10-17T09:02:11Z
2017-10-17T07:02:21Z,42.805,6.029,13.2944,4.59967,2472.002,2017-10-17T09:03:46Z
2017-10-17T07:03:56Z,42.805,6.029,13.2944,4.59967,2472.024,2017-10-17T09:05:21Z
2017-10-17T07:05:31Z,42.805,6.029,13.2944,4.59967,2472.024,2017-10-17T09:06:56Z
2017-10-17T07:07:06Z,42.805,6.029,13.2946,4.59967,2472.047,2017-10-17T09:08:31Z
2017-10-17T07:08:41Z,42.805,6.029,13.2943,4.59970,2472.047,2017-10-17T09:10:06Z
2017-10-17T07:10:16Z,42.805,6.029,13.2944,4.59969,2472.024,2017-10-17T09:11:40Z
2017-10-17T07:11:50Z,42.805,6.029,13.2945,4.59970,2472.032,2017-10-17T09:13:15Z
2017-10-17T07:13:25Z,42.805,6.029,13.2940,4.59968,2472.047,2017-10-17T09:14:50Z
2017-10-17T07:15:00Z,42.805,6.029,13.2946,4.59967,2472.047,2017-10-17T09:16:25Z
2017-10-17T07:16:35Z,42.805,6.029,13.2940,4.59967,2472.047,2017-10-17T09:18:00Z
2017-10-17T07:18:10Z,42.805,6.029,13.2943,4.59967,2472.024,2017-10-17T09:19:35Z
2017-10-17T07:19:45Z,42.805,6.029,13.2948,4.59967,2472.047,2017-10-17T09:21:09Z
2017-10-17T07:21:19Z,42.805,6.029,13.2942,4.59967,2472.01,2017-10-17T09:22:44Z
2017-10-17T07:22:54Z,42.805,6.029,13.2940,4.59968,2472.024,2017-10-17T09:24:19Z
2017-10-17T07:24:29Z,42.805,6.029,13.2945,4.59966,2472.01,2017-10-17T09:25:54Z
2017-10-17T07:26:04Z,42.805,6.029,13.2943,4.59967,2472.024,2017-10-17T09:27:29Z
2017-10-17T07:27:39Z,42.805,6.029,13.2946,4.59968,2472.047,2017-10-17T09:29:04Z
2017-10-17T07:29:14Z,42.805,6.029,13.2939,4.59966,2472.002,2017-10-17T09:30:38Z
2017-10-17T07:30:49Z,42.805,6.029,13.2941,4.59964,2472.024,2017-10-17T09:32:13Z
2017-10-17T07:32:23Z,42.805,6.029,13.2941,4.59964,2472.047,2017-10-17T09:33:48Z
2017-10-17T07:33:58Z,42.805,6.029,13.2943,4.59963,2471.987,2017-10-17T09:35:23Z
2017-10-17T07:35:33Z,42.805,6.029,13.2940,4.59965,2472.01,2017-10-17T09:36:58Z
2017-10-17T07:37:08Z,42.805,6.029,13.2940,4.59963,2472.01,2017-10-17T09:38:33Z
2017-10-17T07:38:43Z,42.805,6.029,13.2940,4.59962,2471.987,2017-10-17T09:40:08Z
2017-10-17T07:40:18Z,42.805,6.029,13.2943,4.59961,2472.002,2017-10-17T09:41:42Z
2017-10-17T07:41:52Z,42.805,6.029,13.2938,4.59962,2472.01,2017-10-17T09:43:17Z
2017-10-17T07:43:27Z,42.805,6.029,13.2939,4.59963,2472.024,2017-10-17T09:44:52Z
2017-10-17T07:45:02Z,42.805,6.029,13.2943,4.59963,2472.024,2017-10-17T09:46:27Z